Location: Bremen
(53.0793°N, 8.8017°E)
Time: 09:28:42
(UTC+01:00)

Transit 2A - Pass Details

Date: 09 December 2021
Orbit: 591 x 966 km, 66.7° (Epoch: 26 January)

Event Time Altitude Azimuth Distance (km) Brightness Sun altitude
Exits shadow 05:32:43 23° 342° (NNW) 1,929 7.8 -24.6°
Maximum altitude 05:35:41 34° 26° (NNE) 1,551 7.7 -24.2°
Drops below altitude 10° 05:41:23 10° 90° (E) 2,681 9.9 -23.3°
Sets 05:44:10 0° 100° (E) 3,594 11.0 -22.9°
